Regional Weather Roundup
Issued by NWS

Home | Current Version | Previous Version | Text Only | Print | Product List | Glossary Off
Versions: 1 2 3 4 5 6 7 8 9 10 11 12 13 14 15 16 17 18 19 20 21 22 23 24 25 26 27 28 29 30 31 32 33 34 35 36 37 38 39 40 41 42 43 44 45 46 47 48 49 50

000
ASUS45 KTFX 031310
RWRMT
MONTANA REGIONAL WEATHER ROUNDUP
NATIONAL WEATHER SERVICE GREAT FALLS MT
600 AM MST SAT DEC 03 2016

NOTE: "FAIR" INDICATES FEW OR NO CLOUDS BELOW 12000 FEET WITH NO
SIGNIFICANT WEATHER AND/OR OBSTRUCTIONS TO VISIBILITY.

MTZ001>007-043-031400-
WEST OF THE DIVIDE

CITY           SKY/WX    TMP DP  RH WIND       PRES   REMARKS
KALISPELL      CLOUDY    32  29  88 S10       29.95S WCI  24
MISSOULA       LGT SNOW  30  28  92 CALM      30.04S FOG
BUTTE          CLOUDY    26  21  81 CALM      29.96F
MULLAN PASS    LGT SNOW  25  23  92 MISG      29.93R VSB 3/4
ANACONDA         N/A     30  19  64 S14G21    29.97S WCI  20
DEER LODGE       N/A     27  23  86 CALM      29.99S
EUREKA           N/A     34  27  75 S5        29.94S
HAMILTON         N/A     34  27  75 S5        30.02F
LIBBY            N/A     30  30 100 CALM      29.98R
PLAINS           N/A     34  28  79 CALM      30.00S
RONAN            N/A     35  28  76 CALM      30.02S
$$

MTZ008-052>055-031400-
SOUTHWEST MONTANA

CITY           SKY/WX    TMP DP  RH WIND       PRES   REMARKS
BOZEMAN        CLOUDY    27  24  89 CALM      29.98S
DILLON         CLOUDY    27  16  63 S15       30.01S WCI  15
W YELLOWSTONE  LGT SNOW  18  14  86 SW12G20   30.06S WCI   5
ENNIS          CLOUDY    25  16  68 S15       30.06S WCI  12
THREE FORKS      N/A     31 -53   2 SW14      29.96F WCI  21
TWIN BRIDGES     N/A     30  16  56 SE14      29.99F WCI  19
$$

MTZ009-010-012-014-046-048-049-054-031400-
EAST SLOPES AND CENTRAL MONTANA

CITY           SKY/WX    TMP DP  RH WIND       PRES   REMARKS
CUT BANK       CLEAR     32  22  66 W33G44    29.73F WCI  17
GREAT FALLS    CLEAR     31  21  66 SW17      29.82S WCI  19
MALMSTROM AFB  CLEAR     33  24  68 SW21G29   29.83S WCI  21
HELENA         CLEAR     24  18  77 VRB3      29.92F
AUGUSTA          N/A     32  21  64 W36G52    29.77R WCI  16
BOWMANS CRNR     N/A     30  20  65 S17G26    29.81R WCI  18
CHOTEAU          N/A     37  21  52 W20G29    29.81R WCI  27
CONRAD           N/A     34  24  67 S5        29.81S
FAIRFIELD        N/A     32  20  60 SW13      29.80S WCI  22
POWER            N/A     30  20  66 SW16      29.81R WCI  19
RAYNESFORD     MOCLDY    33  21  61 W6        29.83R WCI  28
ULM              N/A     33  22  64 W13       29.85R WCI  24
$$

MTZ011-013-016-021-045-047-050-051-031400-
NORTH CENTRAL MONTANA

CITY           SKY/WX    TMP DP  RH WIND       PRES   REMARKS
HAVRE          CLOUDY    33  24  69 SW18      29.75S WCI  22
LEWISTOWN      CLOUDY    30  21  69 SW15      29.79F WCI  19
N BAR RANCH    CLOUDY    36  18  48 W13       29.80S WCI  27
CHINOOK          N/A     37  21  52 SW21G26   29.73S WCI  27
DENTON           N/A     34  22  61 W31G40    29.74F WCI  20
GEYSER           N/A     31  21  67 W15       29.80R WCI  20
GRASS RANGE    MOCLDY    29  20  69 W5        29.76F
JUDITH GAP     CLOUDY    30  19  63 W14G23    29.80S WCI  20
ROY              N/A     34  20  56 MISG      29.76F
STANFORD       MOCLDY    34  20  57 W26G32    29.78R WCI  21
WINIFRED         N/A     31  21  68 MISG      29.76F
$$

MTZ017>020-022>027-061-062-031400-
NORTHEAST MONTANA

CITY           SKY/WX    TMP DP  RH WIND       PRES   REMARKS
GLASGOW        CLOUDY    28  26  92 S8        29.77F WCI  20
JORDAN           N/A     32  21  64 SW6       29.79F WCI  26
SIDNEY         CLOUDY    15  13  91 SW10      29.85F WCI   2
WOLF POINT     CLOUDY    26  21  81 CALM      29.81F
PLENTYWOOD       N/A     19  18  93 SE6       29.78F WCI  11
POPLAR           N/A     27  19  74 S6        29.81F WCI  20
SCOBEY           N/A     25  17  71 SE6       29.75F WCI  18
$$

MTZ028>42-056>058-031400-
SOUTHCENTRAL AND SOUTHEAST MONTANA

CITY           SKY/WX    TMP DP  RH WIND       PRES   REMARKS
BAKER          CLEAR     20  14  77 N3        29.88F
BILLINGS       CLOUDY    34  14  43 W17       29.86S WCI  23
LIVINGSTON     CLOUDY    31  15  52 SW36      29.91S WCI  15
MILES CITY     CLOUDY    22  16  78 S12       29.85F WCI  10
BIG TIMBER     CLOUDY    32  16  51 W32G43    29.89R WCI  17
EKALAKA          N/A     24  13  63 SE2       29.84F
FORSYTH          N/A     30  18  59 W5        29.85S
HARLOWTON      MOCLDY    31  20  63 W32G45    29.82R WCI  15
LAUREL           N/A     31   9  39 S8        29.87R WCI  24
ROUNDUP          N/A     35  17  48 SW12      29.76S WCI  27
$$

REGIONAL REPORTS...DAKOTAS

CITY           SKY/WX    TMP DP  RH WIND       PRES   REMARKS
WILLISTON      CLEAR     22  17  81 S5        29.85F
MINOT          CLEAR     24  21  88 SE7       29.92F WCI  16
DICKINSON      CLEAR     17  14  88 S8        29.88F WCI   7
BEACH            N/A     14  12  92 S10       29.88F WCI   1
CROSBY           N/A     21  19  93 S12       29.84F WCI   9
TIOGA            N/A     21  21 100 S14       29.86F WCI   8
WATFORD CITY     N/A     23  18  80 S5        29.87F
BISMARCK       CLOUDY    26  25  96 S15       30.02F FOG     WCI  14
GRAND FORKS    MOCLDY    26  20  77 S9        30.18F WCI  17
FARGO          CLOUDY    27  19  72 SE8       30.22F WCI  19
BUFFALO SD       N/A     18  15  88 SW6       29.83S WCI  10
RAPID CITY     CLEAR     19  15  84 CALM      29.92F
$$

REGIONAL REPORTS...WYOMING/IDAHO/WASHINGTON

CITY           SKY/WX    TMP DP  RH WIND       PRES   REMARKS
GILLETTE       PTCLDY    22  12  65 SW12      29.86R WCI  10
SHERIDAN       CLOUDY    22  15  75 CALM      29.87F
BUFFALO WY     CLOUDY    29   6  38 SW8       29.86S WCI  21
CODY           CLEAR     30  11  45 W18G25    29.92R WCI  18
YELLOWSTONE LA   N/A     13   9  84 VRB5      30.03S
IDAHO FALLS    CLOUDY    25  18  74 S5        30.19R
SALMON         CLOUDY    27  25  93 CALM      30.11F
BOISE          CLOUDY    35  25  66 SE3       30.23S
SPOKANE        PTCLDY    34  33  96 SW9       30.06R WCI  27
$$

REGIONAL REPORTS...ALBERTA

CITY           SKY/WX    TMP DP  RH WIND       PRES   REMARKS
EDMONTON       CLOUDY    27  23  86 W7        29.67R WCI  19
CALGARY        MOCLDY    34  16  47 NW7       29.69R WCI  28
LETHBRIDGE     CLOUDY    37  23  56 W29G36    29.71S WCI  25
MEDICINE HAT   MOCLDY    32  23  69 W14       29.68R WCI  22
WATERTON GATE    N/A     34  19  55 SW25G41     N/A  WCI  21
CARDSTON         N/A     34  19  55 W13G22      N/A  WCI  25
MILK RIVER       N/A     28  21  74 W13         N/A  WCI  18
ONEFOUR          N/A     32  23  69 NW21        N/A  WCI  20
$$

REGIONAL REPORTS...SASKATCHEWAN

CITY           SKY/WX    TMP DP  RH WIND       PRES   REMARKS
SWIFT CURRENT  CLOUDY    32  28  86 SW14G20   29.59F WCI  22
REGINA         CLOUDY    18  16  93 SE13      29.72F WCI   4
SASKATOON      CLOUDY    23  21  93 E8        29.68F FOG     WCI  14
CYPRESS HILLS    N/A     27  25  93 W10G18      N/A  WCI  17
VAL MARIE        N/A     28  27  93 S13         N/A  WCI  18
ROCKGLEN         N/A     27  27 100 S12         N/A  WCI  16
ASSINIBOIA       N/A     27  25  93 S5          N/A
$$



USA.gov is the U.S. government's official web portal to all federal, state and local government web resources and services.